Morgantown, WV

5:09 AM EST on January 18, 2018 (GMT -0500)
Morgantown Municipal-Hart

Weather History for KMGW - January, 2010

Change the Weather History Date:

Thursday, January 14, 2010

  Actual Average Record
Temperature  
Mean Temperature 35 °F 31 °F  
Max Temperature 45 °F 39 °F 71 °F (1995)
Min Temperature 25 °F 24 °F 0 °F (1912)
Degree Days  
Heating Degree Days 30 34  
Month to date heating degree days 591 473  
Since 1 July heating degree days 2351 2457  
Cooling Degree Days 0 0  
Month to date cooling degree days 0 0  
Year to date cooling degree days 0 0  
Moisture  
Dew Point 17 °F    
Average Humidity 47    
Maximum Humidity 63    
Minimum Humidity 31    
Precipitation  
Precipitation 0.00 in 0.09 in 1.03 in (1958)
Month to date precipitation 0.28 1.26  
Year to date precipitation 0.28 1.26  
Snow  
Snow 0.00 in - - ()
Month to date snowfall 0.0  
Snow Depth 0.00 in    
Sea Level Pressure  
Sea Level Pressure 30.26 in    
Wind  
Wind Speed 4 mph (SSW)    
Max Wind Speed 12 mph    
Max Gust Speed 15 mph    
Visibility 10 miles    
Events      
T = Trace of Precipitation, MM = Missing Value Source: NWS Daily Summary

Daily Weather History Graph

Daily Weather History Graph

Search for Another Location

Airport or City:

Trip Planner

Search our weather history database for the weather conditions in past years. The results will help you decide how hot, cold, wet, or windy it might be!

Date:

Astronomy

Jan. 14, 2010 Rise Set
Actual Time 7:39 AM EST 5:18 PM EST
Civil Twilight 7:09 AM EST 5:48 PM EST
Nautical Twilight 6:36 AM EST 6:21 PM EST
Astronomical Twilight 6:03 AM EST 6:54 PM EST
Moon 7:15 AM EST (1/14) 4:52 PM EST (1/14)
Length of Visible Light 10h 38m
Length of Day
9h 39m
Waning Crescent, 0% of the Moon is Illuminated
Jan 14
Waning Crescent
Jan 15
New
Jan 23
First Quarter
Jan 30
Full
Feb 5
Last Quarter

Hourly Weather History & Observations

Time (EST) Temp. Windchill Dew Point Humidity Pressure Visibility Wind Dir Wind Speed Gust Speed Precip Events Conditions
12:53 AM 30.0 °F 26.5 °F 17.1 °F 59% 30.27 in 10.0 mi South 3.5 mph - N/A   Clear
1:53 AM 28.9 °F 25.2 °F 17.1 °F 61% 30.28 in 10.0 mi SSW 3.5 mph - N/A   Clear
2:53 AM 28.0 °F 24.2 °F 17.1 °F 63% 30.29 in 10.0 mi SSW 3.5 mph - N/A   Clear
4:53 AM 26.1 °F 21.9 °F 16.0 °F 66% 30.28 in 10.0 mi Variable 3.5 mph - N/A   Clear
5:53 AM 26.1 °F 21.9 °F 16.0 °F 66% 30.28 in 10.0 mi SSW 3.5 mph - N/A   Clear
6:53 AM 28.0 °F 24.2 °F 17.1 °F 63% 30.28 in 10.0 mi SSW 3.5 mph - N/A   Clear
7:53 AM 28.0 °F 24.2 °F 17.1 °F 63% 30.29 in 10.0 mi SSW 3.5 mph - N/A   Clear
8:53 AM 32.0 °F 26.4 °F 18.0 °F 56% 30.30 in 10.0 mi SSW 5.8 mph - N/A   Clear
9:53 AM 35.1 °F 31.0 °F 18.0 °F 50% 30.31 in 10.0 mi SSW 4.6 mph - N/A   Clear
10:53 AM 37.9 °F 32.7 °F 19.0 °F 47% 30.31 in 10.0 mi SW 6.9 mph - N/A   Clear
11:53 AM 39.9 °F 35.1 °F 19.9 °F 45% 30.28 in 10.0 mi Variable 6.9 mph - N/A   Clear
12:53 PM 42.1 °F 38.4 °F 19.0 °F 40% 30.25 in 10.0 mi SW 5.8 mph - N/A   Clear
1:53 PM 44.1 °F 40.8 °F 19.0 °F 37% 30.24 in 10.0 mi SW 5.8 mph - N/A   Clear
2:53 PM 44.1 °F 41.5 °F 18.0 °F 35% 30.23 in 10.0 mi Variable 4.6 mph - N/A   Clear
3:53 PM 45.0 °F 43.5 °F 18.0 °F 34% 30.22 in 10.0 mi SW 3.5 mph - N/A   Clear
4:53 PM 44.1 °F - 16.0 °F 32% 30.23 in 10.0 mi Calm Calm - N/A   Clear
5:53 PM 41.0 °F - 16.0 °F 36% 30.22 in 10.0 mi Calm Calm - N/A   Clear
6:53 PM 36.0 °F - 17.1 °F 46% 30.24 in 10.0 mi Calm Calm - N/A   Clear
7:53 PM 33.1 °F 28.7 °F 19.0 °F 56% 30.24 in 10.0 mi South 4.6 mph - N/A   Clear
8:53 PM 36.0 °F - 17.1 °F 46% 30.24 in 10.0 mi Calm Calm - N/A   Clear
9:53 PM 32.0 °F 28.7 °F 17.1 °F 54% 30.25 in 10.0 mi South 3.5 mph - N/A   Clear
10:53 PM 39.0 °F - 15.1 °F 38% 30.24 in 10.0 mi Calm Calm - N/A   Mostly Cloudy
11:53 PM 36.0 °F 33.3 °F 18.0 °F 48% 30.22 in 10.0 mi South 3.5 mph - N/A   Overcast